TimeEDT,TemperatureF,Dew PointF,Humidity,Sea Level PressureIn,VisibilityMPH,Wind Direction,Wind SpeedMPH,Gust SpeedMPH,PrecipitationIn,Events,Conditions,WindDirDegrees,DateUTC
12:53 AM,41.0,37.9,89,30.10,10.0,Calm,Calm,-,N/A,,Clear,0,2013-04-20 04:53:00
1:53 AM,42.1,36.0,79,30.12,10.0,Variable,4.6,-,N/A,,Clear,0,2013-04-20 05:53:00
2:53 AM,41.0,34.0,76,30.12,10.0,NW,4.6,-,N/A,,Clear,320,2013-04-20 06:53:00
3:53 AM,39.0,33.1,79,30.13,10.0,Calm,Calm,-,N/A,,Clear,0,2013-04-20 07:53:00
4:53 AM,37.9,33.1,83,30.14,10.0,Calm,Calm,-,N/A,,Clear,0,2013-04-20 08:53:00
5:53 AM,36.0,34.0,93,30.15,10.0,Calm,Calm,-,N/A,,Clear,0,2013-04-20 09:53:00
6:53 AM,35.1,33.1,92,30.17,10.0,Calm,Calm,-,N/A,,Clear,0,2013-04-20 10:53:00
7:53 AM,37.0,34.0,89,30.19,10.0,Calm,Calm,-,N/A,,Clear,0,2013-04-20 11:53:00
8:53 AM,43.0,34.0,71,30.21,10.0,North,4.6,-,N/A,,Clear,360,2013-04-20 12:53:00
9:53 AM,48.9,36.0,61,30.23,10.0,Calm,Calm,-,N/A,,Clear,0,2013-04-20 13:53:00
10:53 AM,53.1,33.1,47,30.24,10.0,Variable,5.8,-,N/A,,Clear,0,2013-04-20 14:53:00
11:53 AM,55.0,30.0,38,30.25,10.0,North,6.9,-,N/A,,Clear,350,2013-04-20 15:53:00
12:53 PM,55.9,30.9,39,30.23,10.0,North,8.1,-,N/A,,Clear,10,2013-04-20 16:53:00
1:53 PM,57.9,30.9,36,30.21,10.0,NNW,12.7,20.7,N/A,,Clear,340,2013-04-20 17:53:00
2:53 PM,60.1,32.0,35,30.20,10.0,North,9.2,17.3,N/A,,Clear,360,2013-04-20 18:53:00
3:53 PM,61.0,34.0,36,30.19,10.0,North,11.5,16.1,N/A,,Clear,10,2013-04-20 19:53:00
4:53 PM,62.1,33.1,34,30.18,10.0,North,9.2,-,N/A,,Clear,350,2013-04-20 20:53:00
5:53 PM,62.1,34.0,35,30.18,10.0,North,10.4,18.4,N/A,,Clear,360,2013-04-20 21:53:00
6:53 PM,60.1,30.9,33,30.18,10.0,North,5.8,-,N/A,,Clear,360,2013-04-20 22:53:00
7:53 PM,57.0,33.1,40,30.18,10.0,North,5.8,-,N/A,,Clear,10,2013-04-20 23:53:00
8:53 PM,46.9,37.9,71,30.21,10.0,Calm,Calm,-,N/A,,Clear,0,2013-04-21 00:53:00
9:53 PM,43.0,37.9,82,30.23,10.0,Calm,Calm,-,N/A,,Clear,0,2013-04-21 01:53:00
10:53 PM,42.1,37.9,85,30.24,10.0,Calm,Calm,-,N/A,,Clear,0,2013-04-21 02:53:00
11:53 PM,39.9,37.0,89,30.25,10.0,Calm,Calm,-,N/A,,Clear,0,2013-04-21 03:53:00